Погода в Юловском

Россия / Ростовская область     46°39′10″N   41°11′29″E
темп.,
°C
ветер,
м/с
пор.,
м/с
влажн.,
%
обл.,
%
осадки,
мм/ч
давл.,
гПа
погр.,
м
16 июня, ср
ср1600:00+19ююз00740 0.1 100911
03:00+19юв11800 0.1 101011
06:00+20с017986 0.1 101048
09:00+24ссв11680 0.7 1011523
12:00+28в235727 0.3 10101461
15:00+30вюв564737 0.7 10092159
18:00+27св596458 0.0 1008411
21:00+25св7145797 0.0 1008420
17 июня, чт
чт1700:00+24св818536 0.0 1007529
03:00+23всв81854100 0.1 1007675
06:00+20всв61677100 0.9 1008491
09:00+22ссв4878100 1.5 1009352
12:00+26с0464100 0.9 1010638
15:00+19з71195100 12.8 1012339
18:00+17зсз3696100 15.7 1014287
21:00+17св4598100 24.3 1016257
18 июня, пт
пт1800:00+16сз359759 1.5 1016104
03:00+16сз2395100 1.5 101764
06:00+17сз3692100 0.0 1017226
09:00+21сз457787 0.0 1018664
12:00+24с446857 0.0 10181193
15:00+23ссв557295 0.1 1018955
18:00+22ссв45741 0.0 1018504
21:00+18ссз35860 0.0 101881
19 июня, сб
сб1900:00+17ссв48900 0.0 1017176
03:00+17всв411760 0.0 1017256
06:00+18всв513770 0.0 1018358
09:00+24в714580 0.0 1018790
12:00+27в913500 0.0 10181441
15:00+28всв914480 0.0 10161896
18:00+26всв916520 0.0 1015659
21:00+23всв819460 0.0 1016586
20 июня, вс
вс2000:00+21всв7184162 0.0 1016515
03:00+19всв6164351 0.0 1016398
06:00+18всв61760100 0.0 1016420
09:00+23всв7155597 0.0 1016704
12:00+29в8144485 0.0 10141175
15:00+32всв8144124 0.0 10121643
18:00+30вюв816460 0.0 1012548
21:00+25вюв718450 0.0 1013477